Dewpoint
-2 -1 -2 -4 -7 -4 -2 -0 0 -1 -1 -3 -2 -2 -2 -2 -2 -2 -2 -2 -4 -3 -4 -3 -5 -6 -7 -8 -3 -2 2 3 3 4 4 4 3 1 -0 -1 1 2 3 4 3 3 3 2 2 4 2 1 1 1
-2 -1 -1 -1 -3 -3 -2 -1 -0 -1 -1 -2 -2 -2 -2 -2 -2 -1 -1 -1 -2 -3 -5 -5 -5 -5 -5 -6 -5 -5 -2 -0 3 4 3 2 2 -1 0 2 -2 2 0 1 0 1 -2 -1 -0 1 1 1 1 2
-1 -1 -0 -0 -1 -2 -2 -1 -0 -0 -0 -2 -2 -2 -2 -2 -2 -1 -1 -3 -2 -3 -4 -4 -4 -5 -6 -7 -5 -6 -6 -0 -1 -1 1 4 4 1 1 1 0 -1 -2 1 -0 -1 -2 -2 0 1 2 2 2 2
-1 -1 -1 -2 -2 -2 -2 -1 -1 -0 0 -1 -2 -2 -2 -2 -1 -3 -3 -3 -3 -3 -3 -4 -5 -5 -4 -4 -6 -6 -5 -5 -5 -4 -0 3 4 -0 1 0 1 0 -1 0 1 -1 0 -1 -1 1 1 1 1 1
-1 -1 -1 -2 -2 -2 -2 -1 -0 -0 0 -0 -2 -2 -2 -2 -2 -4 -5 -5 -4 -4 -3 -3 -4 -5 -7 -5 -5 -5 -4 -4 -4 -4 -2 -0 1 3 1 1 2 0 1 2 2 -1 -1 -1 -1 -0 1 2 2 1
-3 -2 -2 -1 -1 -1 -1 -1 0 -0 -1 -1 -2 -2 -2 -2 -3 -4 -2 -5 -6 -4 -3 -3 -5 -4 -6 -7 -6 -4 -4 -4 -4 -4 -4 -4 -3 1 3 2 -1 -2 -1 -0 -0 0 1 1 1 2 2 2 1 1
-3 -2 -3 -3 -1 -1 -1 -1 -1 -1 -1 -2 -2 -2 -3 -4 -2 -3 -4 -5 -4 -4 -3 -3 -3 -4 -6 -3 -2 -3 -3 -3 -4 -4 -4 -4 -5 0 2 2 -0 -1 -2 -1 0 1 2 2 2 1 1 1 0 -1
-4 -3 -6 -4 -3 -2 -2 -1 -1 -2 -2 -2 -3 -3 -4 -3 -3 -3 -5 -4 -3 -4 -4 -3 -3 -3 -3 -1 -2 -3 -4 -3 -3 -4 -4 -5 -5 -4 -1 0 2 2 -0 0 1 2 1 1 1 0 -0 -1 -1 -1
-6 -7 -7 -4 -4 -4 -4 -1 -1 -2 -2 -3 -4 -4 -2 -3 -3 -4 -4 -4 -3 -3 -3 -3 -2 0 -0 -1 -1 -2 -4 -3 -6 -4 -5 -5 -4 -1 -2 -3 1 2 1 1 1 0 0 0 -0 -1 0 1 1 1
-17 -11 -5 -4 -4 -5 -4 -2 -2 -2 -3 -4 -4 -2 -2 -5 -6 -5 -2 -2 -3 -3 -3 -3 -2 -1 -1 -1 0 -0 -1 -1 -1 -3 -4 -2 -2 -5 -4 1 1 0 0 0 0 -0 -1 -2 0 1 1 1 1 1
-16 -8 -5 -4 -3 -5 -4 -2 -2 -3 -3 -3 -3 -3 -5 -5 -4 -3 -2 -1 -1 -1 -2 -2 -2 -1 -2 -0 1 0 1 1 2 1 -0 3 2 1 -0 0 -0 -0 -0 -1 -1 -1 -2 -0 1 1 1 1 1 1
-19 -10 -3 -2 -3 -4 -3 -1 -2 -2 -2 -3 -6 -8 -5 -2 -2 -2 -2 -1 -1 1 -1 -0 -2 -2 -2 -1 -1 0 1 1 3 0 2 4 2 -0 -0 -1 -0 0 -1 -2 -2 -2 -1 0 1 2 2 1 1 -0
-18 -11 -7 -3 -2 -3 -2 -2 -2 -2 -3 -6 -8 -7 -3 -3 -4 -4 -3 -3 -1 -0 -1 -2 -2 -3 -2 -0 -0 2 3 3 1 3 4 2 -1 -2 -2 -2 -2 -2 -2 -2 -2 -1 -0 0 1 1 1 1 1 1
-18 -12 -9 -5 -2 -2 -2 -2 -2 -3 -2 -4 -6 -9 -4 -3 -2 -2 -2 -2 -2 -3 -3 -3 -2 -3 -2 -0 1 2 3 2 3 3 3 -1 -1 -2 -2 -2 -3 -3 -2 -2 -2 -1 -1 -0 0 1 0 -1 -0 1
-20 -17 -7 -2 -2 -2 -2 -2 -2 -3 -3 -3 -5 -5 -5 -4 -4 -5 -6 -7 -6 -5 -3 -3 -3 -2 -1 0 0 2 2 2 3 2 2 -0 -1 -2 -3 -3 -3 -3 -3 -3 -3 -3 -3 -3 -3 -4 -4 -4 -3 -2
-23 -17 -8 -3 -2 -2 -2 -2 -3 -3 -3 -4 -5 -4 -5 -6 -3 -4 -4 -5 -4 -6 -5 -3 -2 -1 0 1 2 2 3 3 3 0 0 -1 -1 -3 -4 -4 -6 -10 -12 -11 -12 -13 -14 -14 -14 -13 -12 -10 -8 -6
-14 -9 -8 -5 -1 -2 -2 -2 -3 -3 -3 -3 -4 -5 -4 -4 -5 -5 -6 -5 -5 -8 -4 -4 -2 -2 -3 0 2 1 2 1 1 1 1 -0 -1 -1 -6 -6 -10 -16 -17 -19 -20 -21 -21 -21 -20 -21 -22 -21 -16 -11
-14 -10 -9 -8 -4 -1 -1 -3 -3 -3 -3 -3 -4 -3 -5 -6 -5 -5 -5 -5 -6 -4 -4 -4 -3 -3 -2 -1 -0 1 -0 -1 -1 -0 -1 -1 -0 -2 -4 -10 -12 -14 -12 -8 -11 -10 -22 -24 -23 -22 -22 -21 -21 -20
-14 -10 -7 -4 -2 -2 -3 -2 -3 -3 -3 -4 -4 -5 -5 -6 -5 -5 -5 -5 -5 -4 -4 -4 -4 -4 -3 -4 -3 -4 -3 -1 -0 -0 -0 0 -0 -1 -1 -1 -3 -6 -5 -9 -20 -26 -26 -26 -25 -24 -23 -22 -20 -19
-9 -6 -5 -1 -1 -3 -3 -3 -3 -3 -5 -4 -6 -7 -7 -7 -6 -7 -6 -5 -5 -5 -5 -5 -5 -4 -5 -7 -6 -5 -4 -3 -4 -3 -4 -3 -2 -0 -2 -3 -3 -2 -9 -14 -21 -26 -25 -24 -23 -23 -22 -20 -18 -16
-4 -2 -1 -1 -1 -3 -3 -3 -3 -4 -5 -6 -7 -8 -8 -7 -8 -8 -6 -6 -6 -6 -6 -6 -7 -10 -9 -8 -7 -7 -7 -7 -7 -7 -6 -6 -5 -2 -1 -3 -5 -5 -9 -11 -17 -24 -23 -22 -22 -20 -19 -17 -16 -15
-6 -2 -2 -2 -2 -3 -2 -3 -3 -5 -6 -6 -7 -8 -8 -6 -6 -6 -7 -7 -6 -7 -7 -9 -10 -8 -8 -8 -9 -10 -10 -12 -13 -9 -7 -6 -6 -7 -6 -3 -3 -4 -5 -9 -18 -23 -22 -21 -20 -20 -19 -16 -15 -14
-4 -4 -2 -2 -4 -3 -4 -5 -4 -5 -6 -5 -8 -8 -7 -7 -9 -9 -9 -9 -9 -11 -12 -10 -11 -11 -13 -17 -16 -16 -15 -15 -15 -16 -11 -7 -7 -7 -7 -8 -6 -4 -4 -7 -19 -22 -20 -19 -19 -18 -19 -19 -17 -15
-4 -4 -4 -4 -3 -4 -6 -6 -6 -6 -7 -7 -8 -10 -9 -7 -9 -9 -10 -9 -11 -12 -12 -11 -14 -18 -16 -13 -13 -13 -14 -13 -11 -10 -10 -9 -8 -8 -8 -7 -6 -5 -9 -14 -22 -22 -20 -19 -18 -17 -17 -17 -18 -15
-4 -4 -4 -4 -4 -6 -7 -7 -8 -7 -9 -10 -9 -11 -10 -10 -11 -11 -10 -11 -11 -11 -10 -15 -14 -13 -13 -12 -11 -10 -9 -11 -11 -7 -3 -7 -12 -9 -8 -7 -6 -8 -16 -22 -23 -22 -19 -17 -16 -16 -16 -15 -17 -17
-6 -6 -5 -5 -5 -7 -8 -9 -10 -10 -10 -10 -10 -9 -11 -11 -11 -10 -9 -10 -11 -13 -13 -11 -12 -14 -15 -16 -17 -16 -11 -8 -8 -11 -11 -12 -12 -9 -7 -5 -6 -10 -16 -20 -20 -18 -17 -16 -16 -16 -15 -15 -16 -16
-5 -6 -5 -5 -6 -7 -8 -9 -9 -9 -11 -11 -11 -12 -11 -9 -10 -10 -10 -12 -12 -16 -12 -10 -11 -12 -13 -16 -17 -17 -16 -16 -15 -8 -8 -12 -13 -10 -8 -7 -8 -11 -14 -15 -16 -16 -16 -16 -15 -15 -15 -16 -17 -15
-6 -7 -8 -6 -7 -8 -10 -9 -10 -9 -10 -9 -9 -11 -11 -10 -8 -9 -10 -10 -11 -11 -11 -11 -12 -14 -16 -16 -16 -15 -15 -15 -16 -16 -11 -8 -9 -13 -14 -14 -14 -14 -15 -16 -16 -16 -16 -16 -15 -15 -16 -16 -14 -13
-5 -6 -7 -7 -8 -7 -7 -8 -8 -8 -9 -8 -9 -10 -9 -9 -10 -11 -10 -10 -11 -11 -12 -15 -19 -19 -18 -17 -15 -14 -13 -13 -13 -14 -14 -13 -11 -11 -13 -15 -14 -15 -16 -16 -16 -17 -18 -17 -16 -16 -15 -13 -13 -12
-6 -7 -8 -9 -9 -8 -8 -8 -9 -10 -10 -10 -10 -10 -9 -10 -10 -10 -10 -12 -13 -15 -18 -19 -19 -17 -15 -14 -14 -14 -14 -13 -14 -14 -13 -13 -13 -13 -13 -13 -13 -14 -14 -16 -17 -17 -17 -16 -15 -14 -13 -12 -12 -12
-7 -7 -7 -8 -8 -9 -9 -9 -9 -9 -9 -9 -10 -9 -9 -10 -11 -13 -13 -15 -18 -19 -20 -19 -16 -15 -14 -14 -14 -13 -13 -13 -12 -12 -12 -12 -13 -13 -13 -13 -12 -11 -12 -12 -14 -16 -15 -14 -13 -12 -12 -12 -11 -11
-7 -7 -7 -10 -9 -9 -10 -10 -11 -11 -10 -10 -10 -10 -11 -11 -12 -13 -15 -17 -18 -20 -18 -15 -15 -13 -13 -13 -13 -13 -13 -12 -12 -12 -12 -12 -11 -12 -13 -12 -12 -12 -13 -15 -15 -13 -12 -12 -12 -12 -12 -12 -12 -12
-8 -9 -9 -9 -10 -10 -11 -12 -12 -12 -12 -12 -12 -12 -12 -12 -12 -14 -14 -16 -18 -17 -16 -15 -13 -12 -12 -11 -11 -11 -11 -12 -12 -13 -13 -14 -14 -14 -14 -15 -14 -14 -12 -12 -12 -12 -12 -12 -12 -13 -12 -12 -12 -12
Wind_Speed
7 7 4 2 2 3 6 8 11 14 16 16 14 15 18 19 14 12 12 13 10 4 13 6 4 4 5 3 3 8 4 2 2 2 2 3 3 4 2 4 6 6 5 3 4 3 6 11 5 1 4 10 9 10
8 8 5 4 3 4 7 8 10 13 14 16 15 16 18 15 12 10 13 10 14 9 10 19 20 21 17 10 5 5 6 5 6 3 3 3 2 2 3 3 6 4 5 4 7 5 5 10 3 9 6 7 5 9
9 9 6 4 5 5 7 9 11 13 13 17 16 15 15 14 10 13 18 16 12 9 16 3 3 5 3 5 15 4 2 1 5 7 4 3 4 2 3 5 5 4 4 3 2 4 5 10 8 5 5 7 8 9
10 8 6 4 4 4 7 10 11 14 14 16 15 13 12 14 14 14 13 10 8 7 4 3 8 8 15 15 9 17 11 5 9 9 3 3 3 6 3 4 2 5 8 5 4 6 1 6 15 13 9 7 6 5
9 8 6 3 2 3 7 12 13 16 15 16 12 11 13 17 17 11 6 3 4 3 4 10 9 4 9 2 3 4 9 9 4 2 3 3 6 6 6 3 4 5 5 4 4 10 11 3 18 12 13 8 7 6
9 8 5 3 1 5 9 11 15 14 12 12 11 11 14 19 9 6 2 2 6 8 4 3 6 3 5 3 3 7 8 7 7 4 4 5 12 2 4 7 14 20 16 18 10 2 6 11 12 11 9 8 8 8
11 9 7 5 4 6 10 12 12 9 9 10 11 14 17 12 4 3 2 7 10 9 1 4 6 4 8 3 2 3 5 6 6 4 6 9 6 4 3 5 9 20 24 21 8 9 7 8 6 8 7 7 8 11
11 11 9 6 1 3 8 10 10 8 10 13 15 15 9 2 4 4 6 8 10 4 3 2 3 4 3 3 3 4 3 6 6 6 5 5 10 11 5 9 15 24 6 11 10 11 7 10 7 5 7 9 12 14
13 12 11 7 3 2 5 6 8 10 14 16 13 5 4 3 2 4 11 6 5 2 3 2 3 3 6 5 4 3 6 3 5 3 4 6 4 5 8 18 5 24 7 9 13 9 7 5 4 5 6 8 11 12
12 11 10 10 7 1 4 4 8 12 14 9 4 3 2 4 10 2 3 3 3 3 1 2 3 3 5 3 4 3 6 3 3 5 7 4 5 21 18 9 3 8 2 8 9 7 6 4 3 2 7 11 12 13
13 13 12 9 6 4 1 5 10 12 9 5 3 0 4 3 3 3 2 2 1 2 2 4 5 4 9 3 3 5 2 2 2 2 2 3 2 1 17 14 11 8 10 7 5 5 3 4 3 6 9 9 9 12
11 12 13 10 7 4 1 5 9 11 13 9 2 2 2 2 1 2 1 1 1 2 3 4 8 12 8 6 4 5 3 2 3 3 3 2 1 1 3 6 8 9 7 5 5 4 3 3 4 8 7 7 8 10
12 11 11 10 6 3 1 5 8 13 14 3 3 1 2 2 4 3 3 3 3 5 3 10 7 6 6 6 6 3 3 3 1 2 2 1 2 1 1 2 3 3 4 5 5 5 6 4 2 5 6 5 7 9
11 9 8 8 6 3 2 7 11 16 7 3 1 4 2 0 2 2 2 2 3 6 16 16 7 4 5 3 2 4 2 2 2 2 2 3 5 1 1 1 0 1 3 3 4 4 4 3 2 4 7 7 7 7
11 8 9 9 6 2 2 5 9 14 6 3 1 3 3 1 3 5 5 4 5 10 12 11 8 4 3 4 3 3 3 2 1 2 2 12 6 3 1 2 2 3 4 4 4 3 2 2 2 4 5 7 8 8
11 10 10 9 6 3 4 4 9 12 4 4 4 1 3 1 2 3 4 3 4 8 9 3 3 3 3 4 3 4 3 1 2 2 13 12 5 2 3 3 2 2 3 3 3 3 3 3 2 4 5 7 8 8
13 8 9 10 9 7 5 3 5 3 3 4 4 7 6 6 6 3 3 2 5 3 1 2 3 3 5 3 3 2 2 3 12 15 14 10 6 4 4 3 1 1 2 3 4 4 4 4 5 5 6 7 8 8
11 9 8 9 9 11 8 4 3 4 4 5 4 2 5 7 6 6 5 6 2 3 2 2 3 3 4 4 4 1 6 15 12 11 10 8 6 6 4 4 3 2 2 4 5 5 5 5 5 6 7 8 8 9
10 9 9 10 14 8 3 4 4 3 5 5 7 10 9 9 11 11 11 10 7 6 3 3 4 4 4 10 9 16 18 14 13 13 13 12 11 10 10 9 8 7 6 6 7 6 6 6 7 7 8 8 9 9
11 9 10 14 14 6 4 4 5 4 4 4 7 6 6 8 10 10 9 9 6 3 6 5 6 9 16 25 19 19 20 20 21 19 21 19 16 15 15 16 15 12 9 8 8 8 8 8 8 8 9 9 9 9
13 11 13 13 14 9 4 4 5 5 4 5 7 7 5 9 10 8 7 7 8 6 7 17 27 30 29 29 28 28 29 28 28 26 28 26 19 17 16 17 17 16 14 12 10 9 8 8 8 9 9 9 9 9
15 17 14 15 7 7 7 8 5 4 4 4 4 5 7 5 5 4 6 8 8 14 16 21 23 22 26 28 28 28 28 29 29 28 25 24 24 20 17 16 17 19 17 14 12 10 8 8 8 10 10 10 10 10
11 15 10 7 6 8 4 8 7 5 3 2 2 3 5 5 5 4 6 9 11 21 23 25 25 22 22 20 19 19 19 22 25 24 23 22 23 23 23 20 18 17 17 16 14 12 10 10 10 11 11 12 12 11
12 8 6 6 11 4 6 6 5 4 3 3 3 4 4 4 3 4 4 11 30 30 29 20 13 14 10 11 15 18 17 15 15 14 14 17 21 22 20 19 17 16 15 14 15 13 12 12 13 13 14 15 14 13
6 8 7 6 9 7 5 4 3 3 4 4 3 4 2 3 1 3 5 21 29 24 17 5 5 9 13 16 16 17 19 20 17 20 14 16 17 18 18 17 16 15 15 16 16 14 14 15 16 17 18 18 18 16
5 10 10 9 6 6 7 5 6 7 3 3 6 3 1 0 1 6 4 7 6 4 8 6 10 13 16 17 20 20 17 17 21 22 20 17 12 13 13 15 15 15 15 14 15 15 16 18 19 20 19 20 19 19
5 6 8 9 7 6 3 2 4 3 4 6 3 3 3 3 6 6 7 8 7 5 8 20 26 24 26 29 31 30 28 25 21 19 23 21 16 13 14 16 16 14 15 15 15 17 18 19 20 20 21 20 20 20
7 12 8 12 7 8 4 4 5 6 4 7 7 5 7 8 5 4 5 15 19 18 22 30 36 41 43 42 37 31 28 27 26 24 22 21 20 20 18 18 17 17 18 19 19 19 19 19 21 22 21 21 19 20
6 9 13 6 5 6 11 10 8 11 10 14 6 4 8 17 26 25 27 33 35 36 41 43 42 44 44 41 38 34 29 27 27 27 26 28 27 26 22 23 21 21 20 21 21 20 21 22 22 22 20 21 22 22
8 17 7 9 6 7 13 18 15 22 22 25 26 27 31 37 39 37 39 38 38 42 39 41 42 39 37 35 33 28 23 22 23 24 27 28 28 26 24 22 21 20 20 21 21 22 23 23 22 22 22 22 23 23
9 20 6 11 8 14 23 22 24 24 23 24 26 29 35 36 41 39 36 32 29 26 30 32 31 31 31 30 27 26 24 18 17 17 18 21 23 24 24 23 20 20 20 20 21 21 21 22 22 22 23 23 22 21
16 14 9 4 5 13 15 9 7 8 11 16 23 25 26 22 17 29 23 11 20 27 27 28 29 29 28 26 25 24 22 20 17 17 18 17 16 15 16 17 18 18 19 20 20 20 20 21 22 23 22 19 17 17
7 7 6 4 4 5 8 7 4 4 7 7 12 22 26 16 11 20 22 25 25 24 24 25 25 25 23 20 16 13 12 11 10 10 9 8 8 10 11 13 14 15 16 17 18 19 18 17 16 14 14 15 15 15
Wind_Direction
192 194 209 257 278 305 321 326 336 347 356 357 354 351 352 348 353 348 341 338 3 309 295 289 286 293 337 322 325 354 314 214 256 256 231 229 246 205 274 185 168 172 173 189 200 229 258 126 108 236 128 100 109 130
190 203 211 242 283 311 315 325 332 335 349 345 344 343 342 346 347 334 341 326 332 311 274 294 276 264 259 246 306 318 331 323 354 304 348 308 266 291 206 248 158 199 197 191 184 214 161 192 65 129 136 135 134 148
195 211 214 238 285 298 312 317 319 324 338 336 335 340 349 357 343 330 332 336 329 310 317 335 335 360 8 267 228 238 254 339 20 10 321 291 281 324 231 236 167 243 217 192 6 293 211 187 165 146 144 156 147 162
200 207 220 221 262 295 314 309 312 316 324 323 330 343 340 343 336 334 341 340 315 313 304 322 347 324 301 295 252 225 214 280 310 321 321 291 280 302 266 271 292 195 160 200 253 285 328 222 200 195 185 168 165 186
199 208 213 221 250 317 323 309 312 320 310 316 331 339 331 336 334 339 9 31 295 313 301 301 333 5 344 355 218 201 222 245 279 268 237 247 298 314 286 291 244 200 170 164 218 231 211 262 211 193 180 195 226 247
200 205 208 226 322 319 306 312 313 313 305 314 326 333 332 331 340 9 355 357 2 2 307 308 325 332 333 0 233 235 245 243 222 228 234 234 253 309 276 247 230 247 236 215 234 208 100 128 159 181 184 217 245 264
200 208 218 229 258 280 300 303 307 300 303 317 321 319 318 330 348 51 337 315 328 337 341 303 326 307 321 303 279 235 218 225 222 243 236 241 262 229 252 259 295 269 233 213 208 166 148 169 186 215 223 237 264 283
200 211 223 215 240 298 292 299 293 302 312 316 319 321 329 39 64 39 8 350 344 355 28 342 291 297 309 292 255 193 199 220 233 235 250 244 241 214 246 240 288 304 157 163 183 197 179 179 189 233 266 282 290 294
212 218 207 159 167 297 305 292 300 311 317 320 329 24 50 57 62 348 331 337 338 354 10 353 330 332 323 274 259 205 214 231 235 228 231 221 232 226 235 226 277 319 172 176 192 194 195 200 226 268 298 312 306 300
198 189 187 168 153 109 315 295 306 318 331 338 13 40 2 344 340 9 40 20 0 8 28 271 270 277 293 275 256 246 191 232 230 222 174 222 250 239 240 245 289 300 155 164 175 188 193 199 196 290 328 328 312 305
187 190 184 167 152 121 346 320 310 326 337 358 12 209 323 352 59 43 18 352 45 264 218 265 265 285 297 249 275 226 240 238 259 158 224 229 250 159 215 223 231 248 239 203 194 176 178 202 264 317 333 324 308 303
184 191 187 176 169 148 307 327 334 344 327 327 352 53 360 36 41 68 22 305 283 336 318 304 312 299 284 262 252 239 247 208 263 157 250 262 21 343 187 227 241 224 211 207 208 209 202 199 357 357 344 344 340 333
173 188 189 177 163 137 16 347 342 334 334 327 9 32 49 338 21 78 357 327 336 349 346 324 321 290 294 266 264 267 256 241 247 228 283 5 341 261 220 192 198 206 199 213 220 205 199 187 95 0 354 359 8 1
173 186 178 180 175 119 0 359 350 341 315 301 14 339 141 229 217 178 177 177 268 293 314 315 287 275 296 279 280 270 286 286 281 298 321 336 345 264 243 205 104 180 183 185 180 188 198 220 270 311 311 331 342 340
174 184 172 174 168 160 273 316 337 331 289 284 223 229 217 229 224 239 262 275 314 316 331 315 288 246 264 281 257 291 262 262 268 321 8 346 311 263 232 152 144 125 125 130 137 127 104 67 12 335 336 350 344 335
181 180 181 176 170 191 199 287 327 313 264 264 237 273 224 335 236 258 283 314 352 345 353 306 281 282 268 304 275 253 289 291 44 292 322 328 290 245 235 186 153 123 109 97 83 73 49 27 356 343 344 340 338 338
176 187 178 184 186 198 198 293 308 263 263 271 282 233 236 272 258 236 258 287 306 0 69 17 303 289 302 268 265 281 326 351 333 330 347 343 295 271 266 228 201 117 78 50 27 18 5 346 342 346 344 343 347 350
196 186 188 189 180 177 201 240 257 256 261 259 264 344 250 247 262 264 253 256 251 145 152 235 291 258 260 252 281 294 315 322 318 318 325 326 300 254 249 248 228 273 341 329 322 309 301 321 330 333 339 340 342 343
197 197 186 177 169 159 212 194 211 262 255 272 270 269 268 270 265 257 251 247 230 204 206 200 243 228 234 239 263 292 314 317 317 320 322 321 298 281 259 251 248 250 256 277 281 293 302 311 317 321 327 330 332 333
192 194 178 172 180 175 214 205 198 244 252 260 268 268 266 262 271 276 253 232 210 218 220 222 221 233 241 269 281 294 299 299 302 302 297 305 316 311 274 259 262 268 266 272 282 293 299 305 311 315 319 322 325 330
164 166 172 183 196 204 240 209 216 235 238 239 266 275 265 263 263 258 261 204 207 224 241 237 250 269 280 285 286 289 292 292 290 286 281 285 291 294 291 267 259 260 260 264 271 276 287 299 307 312 314 315 318 321
190 189 186 193 216 215 239 215 219 228 242 252 259 242 259 256 240 216 213 196 229 239 233 264 287 286 289 292 299 296 294 292 287 280 276 269 263 272 276 277 268 263 262 263 263 266 276 290 305 312 312 310 310 312
182 185 200 208 206 220 232 200 194 205 222 213 251 264 243 235 223 222 239 230 250 263 282 283 294 301 302 312 316 316 309 299 290 283 273 269 268 265 265 269 270 263 258 255 252 252 264 279 297 309 312 311 308 306
170 178 195 208 207 191 172 181 201 210 229 239 202 265 258 217 233 223 248 258 268 277 282 291 301 313 332 353 356 355 343 330 327 313 294 278 274 270 268 265 262 258 258 249 246 253 267 280 291 301 307 312 310 303
184 199 217 210 189 157 170 170 196 193 241 209 193 278 254 228 230 246 234 275 279 276 268 273 18 11 357 354 349 349 348 342 331 329 311 302 287 270 264 259 256 254 250 247 249 263 275 281 289 295 297 302 306 298
197 205 196 197 178 164 182 174 197 210 191 200 233 229 191 42 304 249 236 271 310 152 142 58 10 346 337 335 332 333 330 326 323 328 331 315 295 276 269 262 263 262 260 257 258 265 274 281 286 288 290 297 294 292
214 199 195 196 182 169 151 152 163 166 187 211 221 162 148 226 244 253 270 307 262 211 306 318 317 313 313 315 314 313 310 309 303 298 303 309 303 291 270 262 263 264 261 263 264 272 278 280 280 281 287 286 287 288
202 194 176 178 173 187 161 174 179 210 225 209 166 186 198 204 233 243 287 306 308 292 293 299 302 304 304 305 305 302 298 298 296 288 273 276 283 285 279 272 266 263 262 263 267 272 279 282 283 283 284 285 283 285
199 182 156 147 145 195 216 199 214 219 217 192 187 219 234 249 272 277 277 292 298 298 298 299 300 302 303 302 303 301 295 291 286 281 276 270 267 264 270 276 273 268 264 263 265 270 278 284 284 282 279 280 285 286
180 177 174 171 180 216 223 208 235 249 241 241 249 259 267 272 277 281 284 290 292 294 297 297 302 305 305 305 306 304 298 286 276 273 273 274 278 279 277 277 273 268 264 261 264 272 277 279 278 278 283 287 291 293
183 188 203 199 233 244 243 242 245 252 261 264 265 262 267 279 284 284 286 293 296 296 294 299 303 306 303 302 302 301 301 301 291 279 270 266 267 269 272 272 266 263 264 266 268 270 272 273 276 278 281 284 286 287
188 190 192 214 249 250 258 259 245 246 257 256 260 262 265 267 273 290 289 275 294 293 297 295 297 302 304 301 296 294 294 292 284 277 271 270 270 269 265 262 263 264 267 271 272 272 275 278 281 282 284 285 285 285
192 206 215 287 269 239 212 205 231 266 239 246 254 255 253 251 255 270 275 282 284 291 302 309 310 306 302 300 298 293 289 289 286 282 276 268 261 262 264 265 266 266 269 272 275 276 276 277 281 284 285 284 285 287
Height
1499 1501 1502 1503 1503 1503 1503 1503 1501 1499 1498 1495 1492 1490 1488 1486 1483 1480 1481 1480 1479 1476 1471 1470 1470 1470 1469 1469 1467 1465 1462 1460 1459 1458 1456 1452 1450 1447 1446 1443 1451 1458 1461 1460 1461 1462 1467 1441 1444 1447 1445 1443 1444 1446
1497 1500 1499 1501 1501 1501 1502 1503 1501 1498 1496 1495 1492 1489 1487 1484 1481 1480 1478 1478 1477 1476 1472 1469 1467 1467 1468 1470 1471 1468 1468 1467 1465 1462 1454 1449 1448 1444 1444 1448 1441 1452 1447 1451 1450 1449 1440 1440 1441 1442 1443 1443 1445 1447
1496 1498 1497 1497 1499 1499 1501 1502 1500 1499 1496 1494 1491 1489 1486 1483 1482 1481 1478 1477 1476 1472 1467 1465 1465 1465 1464 1464 1467 1471 1468 1468 1468 1469 1467 1460 1452 1443 1448 1444 1441 1440 1439 1444 1442 1436 1436 1438 1440 1441 1443 1444 1445 1446
1494 1495 1496 1495 1496 1497 1499 1500 1498 1497 1494 1493 1490 1488 1486 1483 1481 1479 1477 1476 1476 1475 1472 1466 1464 1465 1464 1463 1463 1465 1467 1468 1470 1470 1470 1464 1455 1444 1443 1439 1437 1434 1435 1438 1439 1437 1436 1436 1436 1439 1441 1444 1445 1446
1492 1493 1493 1493 1495 1495 1497 1497 1497 1495 1494 1492 1489 1487 1485 1482 1480 1477 1476 1475 1475 1478 1474 1467 1464 1463 1461 1460 1461 1463 1465 1468 1469 1469 1469 1465 1459 1454 1443 1438 1434 1430 1431 1438 1439 1431 1431 1432 1433 1436 1438 1441 1443 1444
1489 1491 1492 1492 1493 1494 1496 1495 1494 1492 1491 1490 1488 1485 1482 1480 1478 1478 1477 1477 1475 1474 1473 1469 1465 1463 1462 1462 1462 1463 1464 1466 1467 1467 1464 1460 1458 1458 1446 1430 1426 1426 1425 1427 1428 1429 1429 1431 1433 1435 1437 1439 1440 1441
1486 1488 1489 1489 1490 1492 1494 1493 1492 1490 1489 1488 1486 1482 1480 1477 1477 1478 1480 1479 1476 1473 1472 1469 1466 1464 1462 1462 1461 1462 1463 1465 1466 1465 1459 1457 1454 1453 1444 1434 1421 1421 1419 1422 1424 1426 1430 1431 1433 1435 1436 1436 1437 1438
1484 1486 1486 1486 1487 1489 1491 1491 1491 1489 1487 1486 1483 1480 1477 1475 1476 1478 1478 1477 1476 1474 1473 1473 1469 1465 1463 1462 1462 1461 1462 1463 1461 1458 1452 1448 1448 1446 1439 1428 1424 1423 1416 1418 1421 1425 1428 1429 1431 1433 1434 1433 1433 1433
1482 1483 1485 1481 1485 1487 1488 1490 1490 1488 1485 1484 1481 1479 1479 1478 1476 1477 1476 1476 1476 1479 1475 1475 1474 1468 1465 1462 1460 1460 1460 1458 1455 1452 1447 1446 1439 1433 1424 1421 1422 1422 1418 1419 1421 1424 1426 1428 1429 1430 1430 1429 1429 1429
1479 1481 1483 1481 1481 1485 1489 1490 1489 1487 1484 1481 1481 1481 1480 1480 1477 1477 1476 1478 1477 1478 1477 1476 1475 1472 1468 1463 1457 1457 1455 1451 1448 1440 1439 1436 1426 1418 1417 1418 1418 1422 1420 1421 1421 1423 1424 1426 1427 1427 1427 1426 1426 1425
1476 1479 1480 1480 1480 1479 1486 1489 1490 1487 1484 1481 1479 1480 1480 1478 1477 1479 1479 1479 1479 1478 1477 1475 1474 1470 1465 1462 1457 1452 1448 1444 1437 1432 1434 1422 1414 1410 1413 1415 1418 1418 1420 1421 1422 1422 1423 1425 1426 1425 1424 1423 1423 1422
1474 1478 1479 1480 1480 1479 1484 1487 1489 1489 1488 1483 1479 1479 1480 1480 1479 1479 1481 1480 1480 1477 1476 1474 1473 1470 1463 1459 1455 1448 1443 1440 1430 1433 1429 1414 1416 1416 1414 1414 1415 1417 1419 1420 1421 1421 1422 1424 1424 1423 1422 1421 1420 1419
1471 1476 1478 1480 1481 1479 1484 1486 1488 1487 1486 1483 1481 1481 1481 1482 1484 1481 1486 1483 1481 1479 1478 1475 1473 1468 1463 1457 1451 1443 1437 1431 1431 1427 1420 1421 1419 1418 1417 1417 1418 1418 1419 1419 1420 1421 1422 1422 1422 1423 1421 1420 1419 1418
1471 1475 1476 1479 1482 1480 1484 1487 1488 1488 1487 1483 1480 1482 1481 1482 1481 1480 1480 1479 1479 1478 1476 1474 1471 1468 1462 1457 1447 1440 1434 1434 1428 1424 1423 1426 1422 1421 1420 1419 1419 1419 1419 1420 1420 1421 1421 1421 1421 1422 1421 1419 1418 1417
1470 1473 1474 1477 1480 1480 1486 1488 1487 1488 1489 1483 1481 1482 1480 1476 1477 1478 1477 1476 1477 1476 1474 1471 1469 1468 1461 1455 1447 1441 1435 1432 1428 1428 1428 1427 1425 1423 1422 1421 1420 1420 1420 1420 1420 1420 1420 1421 1421 1421 1420 1418 1417 1417
1468 1470 1474 1475 1476 1479 1483 1487 1486 1489 1485 1483 1479 1478 1477 1477 1476 1477 1477 1474 1473 1473 1472 1473 1470 1465 1457 1452 1444 1438 1432 1428 1430 1431 1428 1426 1424 1424 1424 1423 1422 1422 1421 1421 1421 1421 1421 1421 1421 1420 1419 1418 1417 1415
1468 1469 1470 1472 1475 1478 1483 1486 1486 1486 1485 1482 1478 1475 1476 1476 1474 1474 1475 1474 1473 1472 1473 1474 1473 1464 1461 1453 1443 1437 1433 1434 1433 1430 1427 1425 1425 1424 1424 1424 1423 1423 1423 1422 1422 1421 1421 1421 1420 1419 1418 1417 1416 1414
1466 1468 1469 1470 1473 1477 1481 1484 1484 1483 1482 1478 1477 1476 1474 1474 1473 1472 1472 1471 1471 1471 1472 1474 1473 1468 1463 1454 1442 1437 1435 1433 1431 1429 1427 1424 1423 1424 1424 1424 1423 1423 1423 1423 1422 1421 1420 1420 1419 1418 1418 1416 1415 1413
1464 1466 1468 1470 1474 1477 1480 1481 1481 1481 1480 1477 1474 1472 1472 1471 1470 1470 1471 1470 1469 1470 1470 1469 1468 1462 1453 1443 1438 1435 1435 1432 1430 1428 1427 1425 1423 1422 1422 1421 1421 1422 1421 1421 1421 1420 1419 1418 1418 1417 1416 1415 1413 1412
1462 1465 1466 1471 1473 1475 1478 1478 1477 1477 1477 1475 1471 1469 1468 1467 1465 1465 1466 1468 1468 1469 1467 1462 1453 1445 1441 1436 1436 1434 1433 1431 1429 1425 1424 1423 1421 1420 1419 1419 1419 1419 1418 1418 1418 1417 1417 1417 1416 1415 1414 1413 1412 1411
1460 1464 1468 1471 1472 1474 1474 1472 1473 1474 1472 1471 1469 1469 1465 1463 1461 1460 1459 1462 1464 1461 1454 1444 1436 1434 1435 1433 1431 1429 1427 1425 1423 1422 1419 1417 1417 1416 1415 1415 1416 1416 1416 1415 1415 1415 1415 1414 1414 1413 1412 1411 1410 1409
1458 1463 1466 1468 1470 1472 1470 1468 1471 1472 1472 1468 1467 1466 1463 1460 1457 1456 1456 1457 1452 1442 1438 1434 1431 1430 1429 1426 1424 1422 1420 1417 1415 1413 1413 1412 1410 1410 1410 1410 1411 1411 1411 1412 1411 1411 1412 1412 1411 1410 1409 1409 1408 1407
1458 1462 1465 1467 1469 1467 1465 1465 1468 1467 1467 1464 1464 1462 1458 1455 1452 1452 1450 1444 1435 1430 1430 1428 1426 1424 1422 1419 1417 1414 1412 1408 1405 1403 1403 1404 1403 1404 1404 1405 1405 1406 1406 1407 1407 1408 1408 1408 1408 1407 1407 1406 1405 1404
1456 1460 1462 1461 1460 1459 1461 1462 1464 1464 1463 1462 1461 1459 1452 1450 1449 1448 1444 1430 1424 1424 1423 1423 1421 1419 1417 1415 1413 1411 1408 1405 1402 1399 1399 1398 1397 1397 1398 1398 1399 1400 1401 1402 1403 1403 1404 1404 1404 1404 1404 1403 1402 1401
1456 1456 1456 1451 1451 1454 1456 1457 1458 1460 1460 1458 1458 1455 1449 1449 1449 1445 1435 1420 1417 1416 1417 1418 1418 1416 1414 1412 1411 1409 1406 1403 1400 1397 1394 1394 1392 1391 1392 1392 1393 1394 1396 1397 1398 1399 1399 1400 1400 1399 1399 1398 1397 1396
1449 1446 1446 1444 1446 1448 1449 1454 1455 1455 1452 1454 1451 1447 1447 1448 1450 1439 1422 1415 1413 1413 1414 1414 1414 1413 1412 1410 1408 1406 1403 1400 1398 1395 1393 1390 1388 1387 1387 1388 1389 1390 1392 1393 1394 1394 1394 1394 1394 1394 1393 1393 1392 1391
1439 1437 1437 1438 1440 1441 1445 1446 1446 1446 1450 1450 1444 1446 1446 1446 1441 1421 1414 1412 1413 1413 1412 1411 1409 1407 1406 1404 1403 1400 1398 1396 1394 1392 1390 1388 1387 1385 1385 1384 1384 1386 1387 1388 1388 1388 1388 1388 1388 1388 1387 1387 1386 1386
1428 1428 1432 1434 1436 1438 1439 1441 1442 1441 1438 1436 1437 1441 1438 1431 1422 1414 1413 1412 1413 1411 1409 1407 1404 1401 1397 1395 1393 1391 1389 1388 1385 1384 1383 1382 1382 1381 1381 1380 1380 1381 1381 1381 1381 1382 1382 1382 1381 1381 1380 1380 1380 1380
1423 1423 1427 1430 1433 1434 1433 1431 1429 1425 1424 1424 1425 1423 1417 1412 1411 1410 1409 1408 1406 1403 1400 1395 1391 1389 1385 1383 1381 1380 1379 1378 1376 1373 1373 1372 1373 1374 1375 1374 1374 1374 1375 1375 1374 1375 1375 1374 1374 1373 1373 1373 1373 1372
1417 1420 1423 1424 1426 1424 1416 1418 1415 1415 1416 1415 1414 1411 1407 1403 1403 1404 1402 1400 1398 1393 1389 1385 1381 1378 1374 1372 1368 1367 1367 1366 1366 1365 1363 1363 1363 1364 1365 1365 1366 1366 1367 1367 1368 1367 1367 1367 1366 1366 1366 1365 1365 1364
1412 1416 1417 1416 1412 1408 1409 1410 1409 1410 1409 1408 1407 1405 1399 1396 1391 1391 1391 1389 1386 1383 1379 1376 1374 1371 1367 1364 1362 1360 1358 1358 1357 1357 1356 1355 1356 1356 1357 1358 1359 1359 1360 1360 1360 1360 1360 1359 1359 1359 1358 1358 1358 1357
1408 1408 1409 1409 1405 1405 1406 1405 1404 1404 1401 1399 1397 1396 1393 1391 1385 1380 1378 1378 1377 1373 1371 1369 1365 1362 1359 1357 1355 1353 1351 1351 1350 1350 1350 1350 1350 1350 1350 1350 1351 1352 1353 1353 1353 1353 1352 1352 1352 1351 1350 1350 1350 1350
1403 1404 1405 1405 1403 1400 1400 1401 1399 1398 1396 1392 1388 1386 1384 1385 1379 1372 1371 1370 1367 1366 1364 1361 1357 1354 1352 1349 1348 1347 1346 1346 1345 1345 1345 1345 1345 1346 1346 1346 1346 1347 1347 1347 1347 1346 1346 1345 1345 1345 1344 1344 1344 1344